QPF
0.00 0.00 0.00 0.00 0.00 0.00 0.00 0.00 0.00 0.00 0.00 0.00 0.00 0.00 0.00 0.00 0.00 0.00 0.00 0.00 0.00 0.00 0.00 0.00 0.00 0.00 0.00 0.00 0.00 0.00 0.00 0.00
0.00 0.00 0.00 0.00 0.00 0.00 0.00 0.00 0.00 0.00 0.00 0.00 0.00 0.00 0.00 0.00 0.00 0.00 0.00 0.00 0.00 0.00 0.00 0.00 0.00 0.00 0.00 0.00 0.00 0.00 0.00 0.00
0.00 0.00 0.00 0.00 0.00 0.00 0.01 0.01 0.00 0.00 0.00 0.00 0.00 0.00 0.00 0.00 0.00 0.00 0.00 0.00 0.00 0.00 0.00 0.00 0.00 0.00 0.00 0.00 0.00 0.00 0.00 0.00
0.00 0.00 0.00 0.00 0.00 0.00 0.00 0.02 0.03 0.02 0.02 0.01 0.00 0.00 0.00 0.00 0.00 0.00 0.00 0.00 0.00 0.00 0.00 0.00 0.00 0.00 0.00 0.00 0.00 0.00 0.00 0.00
0.00 0.00 0.00 0.00 0.00 0.00 0.00 0.00 0.00 0.03 0.04 0.02 0.01 0.00 0.00 0.00 0.00 0.00 0.00 0.00 0.00 0.00 0.00 0.00 0.00 0.00 0.00 0.00 0.00 0.00 0.00 0.00
0.00 0.00 0.00 0.00 0.00 0.00 0.00 0.00 0.00 0.00 0.01 0.02 0.03 0.01 0.03 0.04 0.02 0.00 0.00 0.00 0.00 0.00 0.00 0.00 0.00 0.00 0.00 0.00 0.00 0.00 0.00 0.00
0.00 0.00 0.00 0.00 0.00 0.00 0.00 0.00 0.00 0.00 0.00 0.00 0.00 0.00 0.03 0.03 0.03 0.05 0.06 0.06 0.04 0.01 0.00 0.00 0.00 0.00 0.00 0.00 0.00 0.00 0.00 0.00
0.00 0.00 0.00 0.00 0.00 0.00 0.00 0.00 0.00 0.00 0.00 0.00 0.00 0.00 0.00 0.00 0.00 0.00 0.01 0.03 0.03 0.06 0.09 0.06 0.02 0.00 0.00 0.00 0.00 0.00 0.00 0.00
0.00 0.00 0.00 0.00 0.00 0.00 0.00 0.00 0.00 0.00 0.00 0.00 0.00 0.00 0.00 0.00 0.00 0.00 0.00 0.00 0.00 0.00 0.01 0.02 0.03 0.02 0.02 0.00 0.00 0.00 0.00 0.00
0.00 0.00 0.00 0.00 0.00 0.00 0.00 0.00 0.00 0.00 0.00 0.00 0.00 0.00 0.00 0.00 0.00 0.00 0.00 0.00 0.00 0.00 0.00 0.00 0.00 0.00 0.00 0.00 0.00 0.00 0.00 0.00
0.00 0.00 0.00 0.00 0.00 0.00 0.00 0.00 0.00 0.00 0.00 0.00 0.00 0.00 0.00 0.00 0.00 0.00 0.01 0.01 0.01 0.00 0.00 0.00 0.00 0.00 0.01 0.01 0.01 0.00 0.01 0.01
0.00 0.00 0.00 0.00 0.00 0.00 0.00 0.00 0.00 0.00 0.00 0.00 0.00 0.00 0.00 0.00 0.00 0.00 0.00 0.00 0.00 0.01 0.01 0.01 0.02 0.02 0.03 0.04 0.03 0.03 0.00 0.00
0.00 0.00 0.00 0.00 0.00 0.00 0.00 0.00 0.00 0.00 0.00 0.00 0.00 0.00 0.00 0.00 0.00 0.00 0.00 0.01 0.01 0.01 0.01 0.01 0.01 0.06 0.04 0.04 0.05 0.03 0.00 0.00
0.00 0.00 0.00 0.00 0.00 0.00 0.00 0.00 0.00 0.00 0.00 0.00 0.00 0.00 0.00 0.00 0.00 0.00 0.00 0.00 0.01 0.01 0.02 0.03 0.03 0.03 0.04 0.04 0.03 0.01 0.00 0.00
0.00 0.00 0.00 0.00 0.00 0.00 0.00 0.00 0.00 0.00 0.00 0.00 0.00 0.00 0.00 0.00 0.00 0.00 0.00 0.00 0.00 0.00 0.00 0.01 0.01 0.02 0.02 0.02 0.01 0.00 0.00 0.01
0.00 0.00 0.00 0.00 0.00 0.00 0.00 0.00 0.00 0.00 0.00 0.00 0.00 0.00 0.00 0.00 0.00 0.00 0.00 0.00 0.00 0.00 0.00 0.00 0.00 0.00 0.01 0.02 0.02 0.02 0.03 0.03
0.00 0.00 0.00 0.00 0.00 0.00 0.00 0.00 0.00 0.00 0.00 0.00 0.00 0.00 0.00 0.00 0.00 0.00 0.00 0.00 0.00 0.00 0.00 0.00 0.00 0.00 0.00 0.00 0.00 0.00 0.00 0.00
0.00 0.00 0.00 0.00 0.00 0.00 0.00 0.00 0.00 0.00 0.00 0.00 0.00 0.00 0.00 0.00 0.00 0.00 0.00 0.00 0.00 0.00 0.00 0.00 0.00 0.00 0.00 0.00 0.00 0.00 0.00 0.00
0.00 0.00 0.00 0.00 0.00 0.00 0.00 0.00 0.00 0.00 0.00 0.00 0.00 0.00 0.00 0.00 0.00 0.00 0.00 0.00 0.00 0.00 0.00 0.00 0.00 0.00 0.00 0.00 0.00 0.00 0.00 0.00
MSLP
1005.22 1004.99 1005.29 1005.40 1005.88 1006.82 1007.98 1008.85 1009.26 1009.90 1010.54 1011.20 1011.61 1011.93 1012.43 1012.63 1012.97 1013.43 1014.19 1014.91 1015.22 1015.47 1015.36 1015.76 1016.40 1016.60 1016.87 1017.21 1017.50 1017.71 1017.98 1017.87
1005.37 1004.97 1005.33 1005.28 1005.58 1006.28 1007.00 1007.96 1008.74 1009.46 1009.93 1010.21 1010.62 1010.86 1011.51 1012.08 1012.38 1012.99 1013.44 1014.00 1014.42 1014.77 1014.77 1015.23 1015.84 1016.01 1016.11 1016.61 1017.16 1017.60 1017.60 1017.95
1005.10 1004.97 1005.04 1005.24 1005.28 1005.99 1006.61 1007.16 1007.89 1008.63 1009.08 1009.47 1009.99 1010.38 1010.80 1011.54 1012.00 1012.18 1012.58 1013.00 1013.49 1014.00 1014.12 1014.27 1015.02 1015.39 1015.75 1016.12 1016.60 1016.71 1016.97 1017.19
1006.10 1005.23 1004.71 1004.75 1004.99 1005.19 1006.01 1006.61 1007.37 1008.08 1008.56 1009.30 1009.85 1010.24 1010.60 1010.69 1010.88 1011.19 1011.63 1012.28 1012.81 1013.26 1013.47 1013.67 1014.07 1014.78 1014.85 1015.46 1015.82 1016.05 1015.85 1016.23
1006.77 1006.41 1005.94 1005.33 1005.18 1005.00 1005.28 1005.91 1006.52 1007.47 1008.35 1008.66 1008.79 1008.68 1008.56 1008.88 1009.50 1010.02 1010.51 1011.24 1011.60 1012.14 1012.72 1012.99 1013.39 1013.83 1014.27 1014.61 1015.17 1015.40 1015.74 1015.25
1007.76 1007.35 1006.70 1006.17 1005.89 1005.62 1005.20 1005.25 1005.91 1006.80 1007.66 1008.09 1008.29 1008.35 1008.37 1008.89 1009.14 1009.44 1009.80 1010.25 1010.70 1010.98 1011.58 1012.28 1012.78 1013.32 1013.79 1014.21 1014.45 1014.83 1014.92 1015.11
1009.16 1008.86 1008.25 1007.61 1007.03 1006.33 1005.97 1005.48 1005.12 1005.93 1007.10 1007.72 1007.68 1007.80 1008.12 1008.61 1008.77 1009.32 1009.78 1010.22 1010.56 1010.78 1011.07 1011.65 1012.20 1012.75 1013.21 1013.52 1013.85 1014.08 1014.28 1014.42
1011.23 1010.42 1010.16 1009.77 1009.06 1008.39 1006.86 1005.92 1005.79 1005.54 1006.12 1007.03 1007.57 1007.81 1008.34 1008.26 1008.16 1008.22 1008.77 1009.66 1010.26 1010.38 1010.74 1011.15 1011.41 1011.76 1012.11 1012.67 1012.94 1013.19 1013.52 1013.68
1013.07 1012.44 1011.98 1011.37 1010.87 1010.38 1009.61 1008.80 1008.23 1007.45 1007.04 1006.67 1007.14 1007.53 1007.56 1007.72 1007.83 1007.81 1007.76 1007.98 1008.31 1009.17 1009.86 1010.47 1010.52 1011.14 1011.17 1011.69 1011.84 1012.06 1012.40 1012.75
1014.33 1013.72 1013.11 1012.72 1012.13 1011.82 1011.29 1010.59 1010.09 1009.63 1009.48 1008.97 1009.05 1008.94 1008.20 1007.64 1007.62 1007.84 1007.72 1007.75 1007.99 1008.17 1008.94 1009.53 1009.56 1009.81 1010.28 1010.85 1011.09 1011.07 1011.40 1011.66
1015.70 1014.96 1014.46 1013.99 1013.65 1013.31 1012.71 1012.03 1011.74 1011.49 1011.12 1010.75 1010.48 1010.44 1010.12 1009.59 1009.21 1009.03 1008.45 1007.95 1007.86 1007.84 1008.31 1008.61 1008.87 1009.11 1009.45 1009.92 1010.16 1010.42 1010.60 1010.92
1016.64 1015.94 1015.70 1015.33 1014.74 1014.30 1013.81 1013.32 1012.97 1012.49 1012.21 1011.97 1011.59 1011.11 1010.95 1011.01 1010.29 1010.22 1009.98 1009.75 1009.14 1008.56 1008.23 1008.07 1008.33 1008.37 1008.63 1009.08 1009.66 1009.79 1009.90 1010.07
1017.32 1016.71 1016.00 1015.70 1015.69 1015.31 1014.96 1014.49 1014.00 1013.83 1013.43 1012.81 1012.59 1012.04 1011.83 1011.78 1011.44 1011.15 1010.87 1010.45 1010.19 1009.85 1009.41 1009.18 1009.05 1009.25 1009.09 1009.19 1009.15 1009.56 1009.90 1009.87
1017.68 1017.20 1016.76 1016.01 1015.90 1015.93 1015.77 1015.52 1015.19 1014.77 1014.26 1013.82 1013.53 1013.38 1012.67 1012.81 1012.19 1012.02 1011.72 1011.28 1010.99 1010.73 1010.31 1009.86 1009.93 1010.02 1009.97 1009.86 1009.85 1009.60 1009.48 1009.39
1017.31 1016.65 1016.78 1016.92 1016.49 1016.42 1016.46 1016.31 1015.96 1015.55 1015.04 1014.64 1014.60 1014.33 1013.93 1013.51 1013.31 1012.95 1011.71 1011.88 1011.64 1010.96 1011.09 1010.39 1010.45 1010.31 1010.56 1010.29 1010.25 1010.13 1010.04 1009.43
1016.77 1016.53 1016.35 1016.65 1016.42 1016.39 1016.50 1016.50 1016.31 1016.11 1015.76 1015.58 1015.49 1015.09 1014.68 1014.43 1013.92 1013.44 1013.08 1012.68 1011.81 1011.87 1011.39 1010.62 1010.38 1010.48 1011.19 1010.71 1010.42 1009.87 1009.73 1009.63
1017.34 1017.02 1016.82 1016.72 1016.42 1016.97 1016.75 1016.54 1016.44 1016.30 1016.05 1015.93 1015.60 1015.35 1015.28 1015.13 1014.76 1014.19 1013.55 1013.03 1012.66 1012.03 1011.64 1011.33 1011.01 1010.94 1011.11 1011.83 1011.57 1010.19 1009.61 1009.31
1017.83 1017.57 1017.39 1017.20 1017.11 1017.03 1017.05 1016.94 1016.60 1016.56 1016.37 1016.12 1015.92 1015.63 1015.41 1015.29 1015.08 1014.68 1014.18 1013.74 1013.14 1012.27 1011.61 1011.21 1010.74 1010.72 1011.04 1011.31 1011.62 1011.18 1009.75 1009.01
1018.20 1017.99 1017.91 1017.76 1017.72 1017.73 1017.49 1017.10 1016.72 1016.49 1016.42 1016.19 1016.13 1015.89 1015.70 1015.76 1015.22 1014.78 1014.68 1014.12 1013.56 1012.80 1012.26 1011.83 1011.25 1010.86 1010.78 1010.98 1011.32 1011.01 1010.05 1009.22
Thickness
5730 5740 5747 5754 5758 5756 5753 5753 5756 5756 5754 5751 5750 5750 5748 5748 5747 5746 5741 5737 5735 5735 5737 5735 5730 5729 5727 5724 5722 5722 5719 5719
5717 5730 5735 5741 5746 5747 5750 5748 5749 5748 5748 5749 5749 5750 5747 5745 5746 5743 5741 5739 5736 5735 5738 5734 5729 5729 5729 5725 5720 5715 5714 5713
5706 5717 5724 5729 5736 5737 5739 5744 5745 5745 5747 5749 5748 5747 5747 5742 5740 5742 5742 5741 5738 5736 5736 5736 5731 5729 5726 5724 5719 5716 5714 5714
5686 5696 5710 5719 5725 5733 5733 5735 5736 5738 5742 5740 5739 5740 5738 5739 5742 5744 5744 5740 5737 5734 5734 5734 5733 5728 5727 5722 5719 5716 5714 5714
5665 5673 5685 5704 5712 5723 5728 5729 5731 5730 5729 5730 5734 5740 5743 5749 5746 5747 5745 5739 5739 5735 5732 5731 5730 5728 5725 5722 5718 5716 5710 5711
5642 5656 5667 5682 5696 5706 5718 5725 5724 5724 5724 5725 5726 5730 5736 5732 5735 5736 5737 5738 5736 5736 5733 5729 5726 5723 5720 5716 5715 5711 5711 5707
5618 5630 5642 5655 5673 5688 5698 5710 5721 5720 5718 5717 5722 5725 5722 5719 5723 5721 5723 5723 5724 5725 5726 5723 5721 5718 5715 5713 5710 5709 5707 5704
5589 5603 5616 5625 5640 5656 5679 5695 5701 5712 5713 5711 5712 5713 5710 5715 5719 5722 5720 5716 5713 5717 5717 5716 5716 5716 5714 5711 5708 5705 5705 5700
5563 5575 5587 5603 5613 5626 5640 5655 5666 5681 5694 5704 5704 5706 5708 5711 5714 5717 5720 5721 5722 5718 5714 5710 5713 5710 5712 5709 5708 5707 5705 5702
5543 5556 5568 5581 5595 5602 5612 5625 5637 5648 5656 5668 5674 5680 5691 5701 5705 5707 5711 5715 5717 5718 5714 5710 5710 5711 5709 5706 5703 5704 5701 5700
5517 5535 5547 5557 5570 5580 5588 5601 5610 5619 5630 5639 5648 5654 5662 5671 5679 5683 5692 5701 5706 5708 5707 5707 5706 5705 5703 5699 5698 5698 5696 5695
5506 5516 5526 5537 5548 5559 5567 5574 5584 5596 5606 5614 5623 5634 5641 5645 5656 5660 5665 5671 5679 5688 5694 5697 5697 5699 5698 5693 5688 5689 5688 5689
5496 5505 5515 5523 5528 5536 5545 5553 5562 5568 5579 5592 5600 5610 5617 5622 5630 5637 5644 5651 5655 5663 5668 5672 5674 5676 5678 5678 5678 5674 5673 5675
5486 5493 5501 5513 5515 5517 5523 5532 5539 5547 5556 5566 5575 5583 5595 5598 5609 5614 5618 5626 5632 5637 5644 5649 5649 5653 5654 5658 5656 5660 5662 5664
5482 5492 5492 5490 5500 5506 5508 5513 5520 5528 5536 5543 5547 5556 5565 5574 5582 5589 5601 5606 5609 5618 5619 5626 5628 5634 5632 5637 5638 5639 5641 5648
5486 5487 5491 5490 5493 5496 5498 5500 5504 5511 5517 5522 5526 5533 5540 5546 5556 5567 5574 5581 5591 5594 5600 5608 5614 5616 5612 5617 5622 5627 5630 5631
5473 5476 5477 5481 5484 5480 5485 5489 5493 5496 5500 5504 5510 5515 5520 5525 5531 5540 5551 5559 5567 5576 5582 5588 5593 5596 5592 5590 5594 5609 5614 5617
5458 5461 5464 5464 5467 5469 5469 5471 5477 5480 5482 5488 5491 5497 5502 5507 5511 5518 5525 5533 5544 5555 5563 5570 5576 5580 5575 5575 5574 5581 5595 5603
5447 5448 5448 5450 5451 5449 5451 5457 5461 5465 5467 5468 5470 5474 5481 5482 5491 5498 5500 5510 5518 5529 5537 5545 5554 5559 5560 5560 5560 5566 5575 5583